GW0040 Weather Reports


time (UTC)temp
F
wind
direction
speed
knots
gust
knots
rain 1hr
in
rain 24hr
in
rain mn
in
humidity
%
barometer
mb
20260505130130 53 68 14.8 22.6 0.00 0.00 0.00 45 1173.2
20260505124619 53 77 12.2 19.1 0.00 0.00 0.00 46 1173.0
20260505124115 53 74 17.4 26.1 0.00 0.00 0.00 45 1172.6
20260505123612 53 59 13.9 25.2 0.00 0.00 0.00 45 1172.9
20260505123108 53 61 14.8 20.0 0.00 0.00 0.00 46 1172.6
20260505122604 53 91 17.4 20.9 0.00 0.00 0.00 46 1172.6
20260505122101 52 48 12.2 15.6 0.00 0.00 0.00 47 1172.5
20260505121553 52 69 13.0 22.6 0.00 0.00 0.00 47 1172.4
20260505121050 52 70 11.3 17.4 0.00 0.00 0.00 47 1172.4
20260505120546 53 62 14.8 23.5 0.00 0.00 0.00 46 1172.3
20260505120042 53 59 13.9 20.0 0.00 0.00 0.00 46 1172.3
20260505115536 53 86 10.4 20.0 0.00 0.00 0.00 47 1172.4
20260505115034 53 63 13.0 17.4 0.00 0.00 0.00 47 1172.3
20260505114531 53 57 13.0 20.0 0.00 0.00 0.00 46 1172.1
20260505114027 53 71 7.8 17.4 0.00 0.00 0.00 47 1172.3
20260505113524 53 84 13.0 18.2 0.00 0.00 0.00 47 1171.9
20260505113020 53 60 8.7 19.1 0.00 0.00 0.00 48 1172.1
20260505112516 53 59 9.6 17.4 0.00 0.00 0.00 48 1172.0
20260505112014 53 65 14.8 19.1 0.00 0.00 0.00 48 1172.0
20260505111508 53 79 12.2 20.9 0.00 0.00 0.00 48 1172.0
20260505111005 53 51 10.4 18.2 0.00 0.00 0.00 49 1171.6
20260505110502 53 69 11.3 14.8 0.00 0.00 0.00 49 1172.1
20260505101933 54 76 7.0 8.7 0.00 0.00 0.00 46 1171.6
20260505101427 54 92 6.1 12.2 0.00 0.00 0.00 46 1171.7
20260505100923 54 72 7.0 7.8 0.00 0.00 0.00 46 1171.6
20260505100420 55 82 6.1 7.0 0.00 0.00 0.00 46 1171.6
20260505095915 55 80 6.1 8.7 0.00 0.00 0.00 45 1171.6
20260505095413 55 75 10.4 11.3 0.00 0.00 0.00 45 1171.5
20260505094909 55 61 7.0 9.6 0.00 0.00 0.00 45 1171.6
20260505094406 55 51 7.0 15.6 0.00 0.00 0.00 45 1171.3
20260505093901 56 63 9.6 19.1 0.00 0.00 0.00 44 1171.1
20260505093359 55 68 13.9 26.1 0.00 0.00 0.00 43 1171.1
20260505092856 55 69 12.2 19.1 0.00 0.00 0.00 44 1171.0
20260505092354 56 47 8.7 17.4 0.00 0.00 0.00 44 1171.1
20260505091851 56 53 9.6 15.6 0.00 0.00 0.00 44 1171.1
20260505091349 56 67 9.6 13.9 0.00 0.00 0.00 45 1171.2
20260505090847 56 71 14.8 20.0 0.00 0.00 0.00 44 1171.0
20260505090345 57 63 19.1 22.6 0.00 0.00 0.00 43 1171.2
20260505085842 57 66 9.6 25.2 0.00 0.00 0.00 43 1170.8
20260505085340 57 51 13.0 18.2 0.00 0.00 0.00 42 1171.1
20260505084837 58 52 14.8 20.9 0.00 0.00 0.00 42 1171.1
20260505084335 58 59 13.0 17.4 0.00 0.00 0.00 43 1171.1
20260505083832 58 63 14.8 20.0 0.00 0.00 0.00 42 1170.8
20260505083330 58 61 17.4 21.7 0.00 0.00 0.00 41 1170.7
20260505082826 59 56 10.4 19.1 0.00 0.00 0.00 42 1170.8
20260505082323 59 66 11.3 18.2 0.00 0.00 0.00 42 1170.7
20260505081819 59 64 10.4 20.0 0.00 0.00 0.00 41 1171.0
20260505081316 60 64 23.5 27.8 0.00 0.00 0.00 39 1171.0
20260505080813 60 75 15.6 26.1 0.00 0.00 0.00 40 1170.8
20260505080309 60 51 14.8 21.7 0.00 0.00 0.00 40 1171.0
20260505075804 60 61 15.6 25.2 0.00 0.00 0.00 39 1170.5
20260505075304 60 45 16.5 20.0 0.00 0.00 0.00 39 1170.6
20260505074759 61 73 14.8 19.1 0.00 0.00 0.00 39 1170.7
20260505074256 61 57 13.9 20.0 0.00 0.00 0.00 38 1170.6
20260505073753 61 54 10.4 19.1 0.00 0.00 0.00 39 1170.6
20260505073251 62 57 9.6 19.1 0.00 0.00 0.00 38 1170.6
20260505072748 62 66 13.0 18.2 0.00 0.00 0.00 38 1170.4
20260505072244 62 65 12.2 14.8 0.00 0.00 0.00 38 1170.4
20260505071739 62 63 8.7 13.0 0.00 0.00 0.00 38 1170.6
20260505071236 63 60 13.0 18.2 0.00 0.00 0.00 37 1170.5
20260505070734 63 75 10.4 19.1 0.00 0.00 0.00 37 1170.4
20260505070230 63 67 11.3 19.1 0.00 0.00 0.00 37 1170.3
20260505065726 62 69 7.8 14.8 0.00 0.00 0.00 38 1170.5
20260505065223 62 50 9.6 18.2 0.00 0.00 0.00 39 1170.5
20260505064720 62 50 6.1 14.8 0.00 0.00 0.00 40 1170.2
20260505064218 62 56 10.4 13.9 0.00 0.00 0.00 40 1170.1
20260505063715 62 71 6.1 11.3 0.00 0.00 0.00 40 1169.9
20260505063211 63 54 7.8 13.0 0.00 0.00 0.00 40 1169.9
20260505062707 63 67 9.6 12.2 0.00 0.00 0.00 39 1169.8
20260505062205 63 87 4.3 11.3 0.00 0.00 0.00 39 1169.8
20260505061702 63 63 9.6 13.0 0.00 0.00 0.00 39 1170.1
20260505061200 63 43 9.6 13.0 0.00 0.00 0.00 38 1169.9
20260505060657 63 59 6.1 12.2 0.00 0.00 0.00 39 1170.1
20260505060154 63 62 12.2 13.9 0.00 0.00 0.00 39 1169.8
20260505055649 63 58 7.8 11.3 0.00 0.00 0.00 38 1169.7
20260505055146 63 46 7.8 13.0 0.00 0.00 0.00 38 1169.6
20260505054643 62 54 8.7 11.3 0.00 0.00 0.00 38 1169.6
20260505054141 61 35 7.0 7.8 0.00 0.00 0.00 40 1169.5
20260505053639 60 39 6.1 7.8 0.00 0.00 0.00 41 1169.5
20260505053135 60 51 6.1 7.0 0.00 0.00 0.00 41 1169.5
20260505052632 60 48 5.2 6.1 0.00 0.00 0.00 41 1169.5
20260505052130 61 46 6.1 7.0 0.00 0.00 0.00 39 1169.4
20260505051626 61 50 6.1 7.8 0.00 0.00 0.00 38 1169.7
20260505051124 60 59 3.5 7.8 0.00 0.00 0.00 38 1169.6
20260505050622 56 39 5.2 7.0 0.00 0.00 0.00 44 1169.3
20260505050120 55 62 7.8 8.7 0.00 0.00 0.00 44 1169.3
20260505041549 64 271 2.6 5.2 0.00 0.00 0.00 37 1168.8
20260505041047 65 271 3.5 4.3 0.00 0.00 0.00 33 1168.8
20260505040544 65 273 3.5 5.2 0.00 0.00 0.00 33 1168.7
20260505040041 65 289 3.5 6.1 0.00 0.00 0.00 31 1168.9
20260505035537 66 296 4.3 5.2 0.00 0.00 0.00 31 1168.6
20260505035034 66 301 2.6 5.2 0.00 0.00 0.00 32 1168.6
20260505034530 65 298 3.5 4.3 0.00 0.00 0.00 33 1168.4
20260505034027 66 264 3.5 5.2 0.00 0.00 0.00 35 1168.5
20260505033525 65 255 4.3 7.0 0.00 0.00 0.00 33 1168.0
20260505033023 66 276 5.2 5.2 0.00 0.00 0.00 36 1168.3
20260505032520 66 246 4.3 7.0 0.00 0.00 0.00 31 1168.3
20260505032016 67 222 3.5 4.3 0.00 0.00 0.00 33 1168.4
20260505031514 67 212 3.5 5.2 0.00 0.00 0.00 31 1168.5
20260505031010 67 224 4.3 5.2 0.00 0.00 0.00 33 1168.4
20260505030507 69 211 7.8 8.7 0.00 0.00 0.00 29 1168.4
20260505030003 70 182 7.0 7.8 0.00 0.00 0.00 27 1168.6
20260505025459 70 179 6.1 7.8 0.00 0.00 0.00 27 1168.3
20260505024958 70 186 2.6 4.3 0.00 0.00 0.00 27 1168.7
20260505024454 70 93 3.5 6.1 0.00 0.00 0.00 26 1168.7
20260505023952 70 120 6.1 9.6 0.00 0.00 0.00 26 1168.8
20260505023449 70 69 6.1 13.0 0.00 0.00 0.00 27 1169.0
20260505022946 71 80 6.1 8.7 0.00 0.00 0.00 27 1169.0
20260505022444 72 77 4.3 8.7 0.00 0.00 0.00 24 1168.7
20260505021941 71 70 9.6 14.8 0.00 0.00 0.00 27 1168.8
20260505021437 72 59 4.3 11.3 0.00 0.00 0.00 28 1168.8
20260505020933 71 239 1.7 1.7 0.00 0.00 0.00 32 1168.8
20260505020428 72 211 2.6 2.6 0.00 0.00 0.00 31 1168.9
20260505015925 73 215 2.6 2.6 0.00 0.00 0.00 31 1168.6
20260505015422 72 43 0.9 1.7 0.00 0.00 0.00 29 1168.6
20260505014920 72 347 1.7 5.2 0.00 0.00 0.00 30 1168.5
20260505014416 72 356 2.6 6.1 0.00 0.00 0.00 30 1168.6
20260505013914 75 3 4.3 4.3 0.00 0.00 0.00 22 1168.6
20260505013410 75 255 3.5 6.1 0.00 0.00 0.00 26 1168.4
20260505012909 75 280 7.8 8.7 0.00 0.00 0.00 22 1168.4
20260505012406 75 262 5.2 9.6 0.00 0.00 0.00 24 1168.1
20260505011902 75 257 7.8 11.3 0.00 0.00 0.00 26 1168.4
20260505011359 75 261 10.4 12.2 0.00 0.00 0.00 24 1168.0
20260505010855 75 268 6.1 9.6 0.00 0.00 0.00 27 1168.0
20260505010351 75 248 10.4 12.2 0.00 0.00 0.00 25 1168.3
20260505005847 75 273 6.1 8.7 0.00 0.00 0.00 24 1168.1
20260505005344 75 249 7.8 9.6 0.00 0.00 0.00 27 1168.3
20260505004842 75 242 5.2 9.6 0.00 0.00 0.00 27 1167.8
20260505004338 75 246 9.6 13.9 0.00 0.00 0.00 27 1168.1
20260505003835 75 267 11.3 13.9 0.00 0.00 0.00 24 1168.5
20260505003333 75 253 10.4 13.9 0.00 0.00 0.00 27 1168.4
20260505002828 75 254 7.0 8.7 0.00 0.00 0.00 25 1168.4
20260505002326 75 261 9.6 12.2 0.00 0.00 0.00 25 1168.5
20260505001824 75 266 6.1 9.6 0.00 0.00 0.00 26 1168.5
20260505001320 75 277 7.0 12.2 0.00 0.00 0.00 26 1168.4
20260505000818 76 276 11.3 13.0 0.00 0.00 0.00 25 1168.4
20260505000316 76 271 7.0 9.6 0.00 0.00 0.00 24 1168.4
20260504235812 75 239 4.3 7.8 0.00 0.00 0.00 26 1168.7
20260504235309 76 248 7.0 11.3 0.00 0.00 0.00 28 1168.5
20260504234806 76 317 7.8 13.0 0.00 0.00 0.00 24 1168.4
20260504234303 76 247 7.8 12.2 0.00 0.00 0.00 25 1168.4
20260504233759 76 269 4.3 9.6 0.00 0.00 0.00 24 1168.5
20260504233255 76 251 10.4 14.8 0.00 0.00 0.00 25 1168.6
20260504232752 76 247 7.0 7.0 0.00 0.00 0.00 24 1168.5
20260504232249 76 240 12.2 13.9 0.00 0.00 0.00 23 1168.7
20260504231746 76 267 9.6 13.9 0.00 0.00 0.00 23 1168.7
20260504231242 76 261 7.8 12.2 0.00 0.00 0.00 22 1168.6
20260504230738 76 255 9.6 13.0 0.00 0.00 0.00 23 1168.7
20260504230237 76 276 8.7 11.3 0.00 0.00 0.00 22 1168.8
20260504225736 76 266 12.2 13.9 0.00 0.00 0.00 25 1168.8
20260504225231 75 285 12.2 13.9 0.00 0.00 0.00 25 1168.8
20260504224729 76 257 12.2 15.6 0.00 0.00 0.00 24 1168.9
20260504224226 77 293 6.1 13.0 0.00 0.00 0.00 25 1168.9
20260504223722 76 270 6.1 12.2 0.00 0.00 0.00 23 1169.2
20260504223218 76 265 6.1 14.8 0.00 0.00 0.00 23 1168.9
20260504222715 76 239 6.1 11.3 0.00 0.00 0.00 25 1169.0
20260504222212 77 258 7.0 9.6 0.00 0.00 0.00 22 1169.0
20260504221709 76 279 10.4 15.6 0.00 0.00 0.00 22 1169.2
20260504221206 76 283 9.6 13.0 0.00 0.00 0.00 24 1169.5
20260504220703 76 262 5.2 9.6 0.00 0.00 0.00 21 1169.7
20260504220200 77 243 10.4 14.8 0.00 0.00 0.00 20 1169.6
20260504215656 76 241 5.2 9.6 0.00 0.00 0.00 23 1169.6
20260504215154 77 284 4.3 8.7 0.00 0.00 0.00 22 1169.7
20260504214649 77 223 7.0 9.6 0.00 0.00 0.00 22 1169.6
20260504214146 76 293 7.8 9.6 0.00 0.00 0.00 21 1169.9
20260504213643 76 248 7.8 8.7 0.00 0.00 0.00 25 1170.2
20260504213139 75 259 6.1 11.3 0.00 0.00 0.00 24 1169.9
20260504212636 75 256 6.1 7.8 0.00 0.00 0.00 26 1170.1
20260504212133 77 265 10.4 12.2 0.00 0.00 0.00 26 1170.2
20260504211631 75 293 5.2 8.7 0.00 0.00 0.00 25 1170.2
20260504211126 76 226 7.8 9.6 0.00 0.00 0.00 26 1170.3
20260504210625 76 309 6.1 8.7 0.00 0.00 0.00 27 1170.4
20260504210120 76 278 2.6 6.1 0.00 0.00 0.00 27 1170.7
20260504205618 76 246 3.5 5.2 0.00 0.00 0.00 27 1170.5
20260504205116 75 226 4.3 9.6 0.00 0.00 0.00 28 1170.5
20260504204614 75 235 6.1 7.8 0.00 0.00 0.00 27 1170.6
20260504204113 75 227 0.0 6.1 0.00 0.00 0.00 27 1170.6
20260504203611 74 227 4.3 6.1 0.00 0.00 0.00 28 1171.0
20260504203108 75 204 7.8 8.7 0.00 0.00 0.00 27 1170.8
20260504202603 74 154 2.6 4.3 0.00 0.00 0.00 28 1171.0
20260504202100 75 269 0.9 2.6 0.00 0.00 0.00 29 1170.8
20260504201556 74 275 5.2 7.0 0.00 0.00 0.00 29 1171.1
20260504201055 73 213 3.5 6.1 0.00 0.00 0.00 29 1171.2
20260504200550 74 244 7.0 8.7 0.00 0.00 0.00 29 1171.0
20260504200048 74 250 7.0 7.8 0.00 0.00 0.00 30 1171.3
20260504195544 74 246 7.8 8.7 0.00 0.00 0.00 30 1171.3
20260504195040 72 221 4.3 6.1 0.00 0.00 0.00 31 1171.3
20260504194537 73 157 2.6 5.2 0.00 0.00 0.00 31 1171.4
20260504194032 73 165 2.6 5.2 0.00 0.00 0.00 31 1171.3
20260504193529 72 173 0.9 2.6 0.00 0.00 0.00 31 1171.4
20260504193028 73 200 4.3 6.1 0.00 0.00 0.00 32 1171.4
20260504192526 71 96 0.0 1.7 0.00 0.00 0.00 32 1171.7
20260504192024 72 153 5.2 7.0 0.00 0.00 0.00 32 1171.5
20260504191521 72 175 1.7 7.0 0.00 0.00 0.00 32 1172.0
20260504191017 71 111 2.6 2.6 0.00 0.00 0.00 29 1172.1
20260504190514 71 123 2.6 7.8 0.00 0.00 0.00 30 1172.2
20260504190010 71 186 2.6 7.0 0.00 0.00 0.00 31 1171.9
20260504185507 71 159 7.0 7.8 0.00 0.00 0.00 31 1171.7
20260504185003 70 151 1.7 7.0 0.00 0.00 0.00 31 1172.2
20260504184459 69 197 5.2 7.0 0.00 0.00 0.00 33 1172.3
20260504183954 70 198 6.1 7.0 0.00 0.00 0.00 30 1172.2
20260504183452 70 191 7.0 7.8 0.00 0.00 0.00 31 1172.5
20260504182950 70 194 5.2 7.8 0.00 0.00 0.00 33 1172.2
20260504182446 69 147 3.5 11.3 0.00 0.00 0.00 34 1172.4
20260504181944 69 156 7.0 7.8 0.00 0.00 0.00 33 1172.5
20260504181441 69 139 3.5 9.6 0.00 0.00 0.00 33 1172.5
20260504180939 69 120 6.1 8.7 0.00 0.00 0.00 32 1172.8
20260504180438 68 162 7.0 9.6 0.00 0.00 0.00 34 1172.4
20260504175936 68 126 6.1 7.8 0.00 0.00 0.00 34 1172.9
20260504175432 68 102 3.5 5.2 0.00 0.00 0.00 35 1172.9
20260504174930 68 126 4.3 6.1 0.00 0.00 0.00 36 1172.8
20260504174428 68 181 6.1 7.0 0.00 0.00 0.00 36 1172.8
20260504173925 68 190 1.7 5.2 0.00 0.00 0.00 37 1172.5
20260504173421 66 153 4.3 7.8 0.00 0.00 0.00 37 1172.6
20260504172919 66 158 2.6 7.0 0.00 0.00 0.00 38 1172.9
20260504172414 65 149 2.6 7.0 0.00 0.00 0.00 37 1173.1
20260504171911 65 162 4.3 7.0 0.00 0.00 0.00 38 1172.9
20260504171408 66 182 5.2 9.6 0.00 0.00 0.00 37 1172.8
20260504170905 64 164 6.1 8.7 0.00 0.00 0.00 37 1172.8
20260504170402 64 172 5.2 8.7 0.00 0.00 0.00 38 1172.9
20260504160320 61 105 3.5 7.0 0.00 0.00 0.00 38 1173.0
20260504150745 58 66 7.8 9.6 0.00 0.00 0.00 38 1172.9
20260504150242 58 83 7.0 8.7 0.00 0.00 0.00 39 1173.2
20260504141212 56 29 4.3 6.1 0.00 0.00 0.00 44 1173.3
20260504140708 55 41 5.2 7.0 0.00 0.00 0.00 46 1173.3
20260504140203 54 30 4.3 5.2 0.00 0.00 0.00 47 1173.3